Location: Taaricht
(32.5378°N, 5.4251°W)
Time: 18:45:39
(UTC+00:00)

BREEZE-M DEB (TANK) - Pass Details

Date: 09 April 2020
Orbit: 317 x 11716 km, 49.7° (Epoch: 27 May)

Event Time Altitude Azimuth Distance (km) Brightness Sun altitude
Rises 19:23:43 0° 218° (SW) 7,692 9.5 -8.3°
Reaches altitude 10° 19:30:47 10° 216° (SW) 4,994 8.4 -9.7°
Maximum altitude 19:40:59 58° 141° (SE) 1,003 4.3 -11.8°
Drops below altitude 10° 19:44:29 10° 61° (ENE) 1,772 5.5 -12.5°
Enters shadow 19:44:34 - 61° (ENE) 1,810 5.6 -12.5°
